Tracking 30061 objects as of 9-Dec-2024
HD Live streaming from Space Station
objects crossing your sky now

STARLINK-6294

Track STARLINK-6294 now!
10-day predictions
STARLINK-6294 is classified as:


NORAD ID: 57225
Int'l Code: 2023-094H
Perigee: 565.6 km
Apogee: 566.8 km
Inclination: 43.0 °
Period: 95.8 minutes
Semi major axis: 6937 km
RCS: Unknown
Launch date: July 7, 2023
Source: United States (US)
Launch site: AIR FORCE WESTERN TEST RANGE (AFWTR)
Your satellite tracking list
Your tracking list is empty




NASA's NSSDC Master Catalog

Two Line Element Set (TLE):
1 57225U 23094H   24343.50088360  .00001518  00000-0  12737-3 0  9993
2 57225  43.0033 349.4469 0000886 264.5122  95.5619 15.02550126 78499
Source of the keplerian elements: AFSPC